STARLINK-32483, 61856

Orbit data source: Space-Track

STARLINK-32483, 61856 is a payload satellite owned by SpaceX/Seattle (US) in LEO that was launched on Thu, 07 Nov 2024 UTC via an FALCON 9 launch vehicle from the Air Force Eastern Test Range (AFETR). Payload-class satellites include a variety of spacecraft equipped with specific instruments for various scientific and technological missions. These include communications satellites like Starlink; space stations such as the ISS; scientific satellites like the Hubble; Earth observation satellites from companies like Planet Labs, Umbra, and HawkEye 360; GPS; miniature CubeSats for education and research; and military/defense satellites.

Loading next visibility...
Identifier
61856, 2024-202M
Orbit
LEO
Country
Flag of USUS
Related business
Manufacturer
SpaceX/Seattle
Mission
Operational Commercial Communications
Bus & Motor
STARLINK V2M, Unknown motor
Mass
730 kg wet, ~700 kg dry
Launch date (UTC)
2024-11-07 (10 months ago)
Launch vehicle
FALCON 9
Launch site
Air Force Eastern Test Range (AFETR)
Object type
Payload
Rocket body
Debris
Shape & HBR
Box + 2 Pan, 14.5 m
Radar Cross Section
33.884 m², Large (>1 m²)

Expand to show TLE details & history
Last TLE update: 20 hours ago

TLE from 20 hours ago
0 STARLINK-32483
1 61856U 24202M   25260.96865077  .00002883  00000-0  11423-3 0  9994
2 61856  43.0042 133.3033 0001551 229.8174 130.2542 15.27591540 48921
Epoch: 2025-09-17T23:14Z
TLE epoch observation values (Epoch: 2025-09-17T23:14:51.426Z)
Latitude
-0.00002°
Longitude
147.45201°
Altitude
483.478 km
Speed
7.625 km/s
True Right ascension
08h 53m 12s
True Declination
0° 00' 00"
Sunlit
Object was in daylight at epoch
Visualization orbit readout
Latitude
Unknown
Longitude
Unknown
Altitude
Unknown
Speed
Unknown
Apparent Right ascension
Unknown
Apparent Declination
Unknown
Sunlit
N/A
Visualization observer readout
Local Sidereal Time
11:43:01
Azimuth
Unknown
Elevation
Unknown
Doppler factor
Unknown
Orbital elements
Apogee altitude
486.023 km
Perigee altitude
483.895 km
Semi-major axis
6,863.096 km
Eccentricity
0.00016
Inclination
43.0042°
RAAN
133.3033°
Arg. of periapsis
229.8174°
True anomaly
130.26776°
Mean anomaly
130.2542°
Eccentric anomaly
130.26098°
Mean motion
3.81736 °/min
Orbital period
94.31 mins
BSTAR
0.00011423
Loading maneuver chart data...
Computing Atmospheric mass density...
Loading historical data...
Loading historical data...
Loading historical data...
Loading historical data...
Loading historical data...
Loading historical data...
Loading historical data...

Documentation

Showing up to 5 results
|